Find Starlink 35992

NORAD ID: 66852 Int'l Des: 2025-281 Owner: SPXS Country: US Constellation: starlink operational
LEOCIRCULAR

Live-Position

3D-Globus wird geladen...

Über Starlink 35992

Beschreibung wird geladen...

Nächste Überflüge

Passes for default location (London). Set your location on the main map for personalized predictions.

Höhenverlauf

Loading altitude history...

Zweizeiliger Elementsatz

1 66852U 25281E 26106.78706118 .00014229 00000-0 52559-3 0 9995
2 66852 42.9990 128.1765 0001099 248.4912 111.5822 15.27579849 22013
Epoch: 16. Apr. 2026 • Age: 15 hours

Aktueller Status

Höhe 484.8 km
Geschwindigkeit 7.63 km/s
Subsatellitenpunkt 34.23°N, 90.68°W
Startdatum 2. Dez. 2025
Alter 0.3 years
Typ internet

Technische Details

Klassifizierung Payload
Masse 575.00 kg
Trockenmasse 530.00 kg
Gesamtmasse 575.00 kg
Länge 0.30 m
Durchmesser 4.10 m
Spannweite 29.00 m
Form Box + pan
Hersteller SPXS
Bus-Typ Starlink V2MO
Phasenstatus In Orbit
Besitzer/Staat SPXS/US

Most Searched